Stündliche Wetter Caxambu

Heute, 21 Januar, Donnerstag

Zeit Temperatur Niederschläge Wind Luftdruck Luftfeuchtigkeit
00:00 +20°C° 0 mm 1 m/S 685 mmHg 94%
01:00 +20°C° 0.1 mm 1 m/S 684 mmHg 94%
02:00 +20°C° 0.1 mm 1 m/S 684 mmHg 94%
03:00 +20°C° 0.1 mm 1 m/S 684 mmHg 94%
04:00 +20°C° 0.1 mm 1 m/S 684 mmHg 95%
05:00 +18°C° 0.1 mm 0 m/S 685 mmHg 95%
06:00 +18°C° 0.1 mm 0 m/S 685 mmHg 96%
07:00 +21°C° 0.1 mm 1 m/S 686 mmHg 91%
08:00 +23°C° 0.1 mm 1 m/S 686 mmHg 85%
09:00 +25°C° 0.1 mm 2 m/S 687 mmHg 80%
10:00 +26°C° 0.3 mm 2 m/S 687 mmHg 77%
11:00 +27°C° 0.3 mm 2 m/S 687 mmHg 74%
12:00 +27°C° 0.3 mm 2 m/S 687 mmHg 70%
13:00 +28°C° 0.6 mm 2 m/S 686 mmHg 70%
14:00 +28°C° 0.6 mm 2 m/S 686 mmHg 69%
15:00 +28°C° 0.6 mm 2 m/S 685 mmHg 68%
16:00 +27°C° 0.4 mm 2 m/S 685 mmHg 73%
17:00 +26°C° 0.4 mm 2 m/S 685 mmHg 78%
18:00 +25°C° 0.4 mm 1 m/S 685 mmHg 82%
19:00 +24°C° 0.1 mm 1 m/S 685 mmHg 86%
20:00 +22°C° 0.1 mm 1 m/S 685 mmHg 89%
21:00 +20°C° 0.1 mm 2 m/S 686 mmHg 92%
22:00 +20°C° 0 mm 1 m/S 686 mmHg 93%
23:00 +20°C° 0 mm 1 m/S 686 mmHg 94%

Morgen, 22 Januar, Freitag

Zeit Temperatur Niederschläge Wind Luftdruck Luftfeuchtigkeit
00:00 +20°C° 0 mm 1 m/S 686 mmHg 95%
01:00 +19°C° 0 mm 1 m/S 686 mmHg 95%
02:00 +19°C° 0 mm 1 m/S 686 mmHg 95%
03:00 +19°C° 0 mm 1 m/S 685 mmHg 95%
04:00 +19°C° 0 mm 1 m/S 686 mmHg 96%
05:00 +19°C° 0 mm 1 m/S 686 mmHg 96%
06:00 +19°C° 0 mm 1 m/S 686 mmHg 96%
07:00 +21°C° 0.1 mm 1 m/S 687 mmHg 89%
08:00 +23°C° 0.1 mm 1 m/S 688 mmHg 83%
09:00 +25°C° 0.1 mm 1 m/S 688 mmHg 76%
10:00 +26°C° 0.1 mm 1 m/S 688 mmHg 70%
11:00 +27°C° 0.1 mm 2 m/S 688 mmHg 63%
12:00 +28°C° 0.1 mm 2 m/S 688 mmHg 57%
13:00 +28°C° 0.1 mm 2 m/S 688 mmHg 58%
14:00 +28°C° 0.1 mm 2 m/S 687 mmHg 58%
15:00 +28°C° 0.1 mm 2 m/S 687 mmHg 59%
16:00 +27°C° 0.2 mm 2 m/S 687 mmHg 66%
17:00 +26°C° 0.2 mm 2 m/S 686 mmHg 74%
18:00 +25°C° 0.2 mm 1 m/S 686 mmHg 81%
19:00 +23°C° 0.1 mm 1 m/S 686 mmHg 84%
20:00 +22°C° 0.1 mm 1 m/S 686 mmHg 86%
21:00 +21°C° 0.1 mm 1 m/S 686 mmHg 89%
22:00 +20°C° 0 mm 1 m/S 686 mmHg 90%
23:00 +20°C° 0 mm 1 m/S 687 mmHg 91%

übermorgen, 23 Januar, Samstag

Zeit Temperatur Niederschläge Wind Luftdruck Luftfeuchtigkeit
00:00 +19°C° 0 mm 1 m/S 687 mmHg 91%
01:00 +19°C° 0 mm 1 m/S 686 mmHg 92%
02:00 +18°C° 0 mm 1 m/S 686 mmHg 92%
03:00 +18°C° 0 mm 1 m/S 685 mmHg 93%
04:00 +18°C° 0 mm 1 m/S 686 mmHg 93%
05:00 +18°C° 0 mm 1 m/S 686 mmHg 93%
06:00 +18°C° 0 mm 1 m/S 686 mmHg 94%
07:00 +20°C° 0 mm 1 m/S 687 mmHg 89%
08:00 +21°C° 0 mm 2 m/S 687 mmHg 84%
09:00 +24°C° 0 mm 2 m/S 688 mmHg 79%
10:00 +25°C° 0.2 mm 2 m/S 688 mmHg 76%
11:00 +25°C° 0.2 mm 2 m/S 688 mmHg 74%
12:00 +26°C° 0.2 mm 2 m/S 687 mmHg 71%
13:00 +27°C° 0.9 mm 2 m/S 687 mmHg 72%
14:00 +27°C° 0.9 mm 2 m/S 686 mmHg 72%
15:00 +27°C° 0.9 mm 2 m/S 686 mmHg 73%
16:00 +26°C° 1 mm 2 m/S 685 mmHg 77%
17:00 +25°C° 1 mm 1 m/S 685 mmHg 81%
18:00 +24°C° 1 mm 1 m/S 685 mmHg 86%
19:00 +23°C° 0.3 mm 1 m/S 685 mmHg 88%
20:00 +21°C° 0.3 mm 2 m/S 685 mmHg 90%
21:00 +20°C° 0.3 mm 2 m/S 686 mmHg 92%
22:00 +19°C° 0 mm 2 m/S 686 mmHg 93%
23:00 +19°C° 0 mm 2 m/S 686 mmHg 94%

24 Januar, Sonntag

Zeit Temperatur Niederschläge Wind Luftdruck Luftfeuchtigkeit
00:00 +19°C° 0 mm 1 m/S 686 mmHg 95%
01:00 +19°C° 0 mm 1 m/S 685 mmHg 95%
02:00 +19°C° 0 mm 1 m/S 685 mmHg 95%
03:00 +18°C° 0 mm 1 m/S 684 mmHg 95%
04:00 +18°C° 0 mm 1 m/S 684 mmHg 94%
05:00 +18°C° 0 mm 1 m/S 685 mmHg 94%
06:00 +16°C° 0 mm 1 m/S 685 mmHg 94%
07:00 +20°C° 0 mm 1 m/S 685 mmHg 88%
08:00 +22°C° 0 mm 1 m/S 686 mmHg 83%
09:00 +24°C° 0 mm 1 m/S 686 mmHg 77%
10:00 +25°C° 0 mm 1 m/S 686 mmHg 74%
11:00 +26°C° 0 mm 1 m/S 686 mmHg 70%
12:00 +27°C° 0 mm 1 m/S 686 mmHg 66%
13:00 +27°C° 0.5 mm 1 m/S 685 mmHg 67%
14:00 +27°C° 0.5 mm 1 m/S 685 mmHg 68%
15:00 +27°C° 0.5 mm 1 m/S 684 mmHg 69%
16:00 +26°C° 0.9 mm 1 m/S 684 mmHg 74%
17:00 +25°C° 0.9 mm 1 m/S 684 mmHg 80%
18:00 +22°C° 0.9 mm 0 m/S 683 mmHg 85%
19:00 +23°C° 0.5 mm 1 m/S 683 mmHg 87%
20:00 +22°C° 0.5 mm 1 m/S 684 mmHg 89%
21:00 +21°C° 0.5 mm 1 m/S 684 mmHg 91%
22:00 +20°C° 0 mm 1 m/S 684 mmHg 92%
23:00 +20°C° 0 mm 1 m/S 684 mmHg 93%

25 Januar, Montag

Zeit Temperatur Niederschläge Wind Luftdruck Luftfeuchtigkeit
00:00 +19°C° 0 mm 1 m/S 684 mmHg 95%
01:00 +19°C° 0 mm 1 m/S 683 mmHg 95%
02:00 +19°C° 0 mm 1 m/S 683 mmHg 95%
03:00 +18°C° 0 mm 1 m/S 683 mmHg 95%
04:00 +18°C° 0 mm 1 m/S 683 mmHg 95%
05:00 +18°C° 0 mm 1 m/S 683 mmHg 95%
06:00 +18°C° 0 mm 1 m/S 683 mmHg 96%
07:00 +20°C° 0 mm 1 m/S 684 mmHg 89%
08:00 +22°C° 0 mm 1 m/S 685 mmHg 83%
09:00 +24°C° 0 mm 1 m/S 685 mmHg 77%
10:00 +25°C° 0 mm 1 m/S 685 mmHg 72%
11:00 +27°C° 0 mm 1 m/S 685 mmHg 67%
12:00 +28°C° 0 mm 2 m/S 685 mmHg 63%
13:00 +28°C° 0.1 mm 1 m/S 685 mmHg 62%
14:00 +28°C° 0.1 mm 1 m/S 684 mmHg 61%
15:00 +28°C° 0.1 mm 1 m/S 684 mmHg 61%
16:00 +27°C° 0.1 mm 1 m/S 683 mmHg 66%
17:00 +27°C° 0.1 mm 1 m/S 683 mmHg 72%
18:00 +24°C° 0.1 mm 0 m/S 683 mmHg 78%
19:00 +24°C° 0.1 mm 1 m/S 683 mmHg 82%
20:00 +23°C° 0.1 mm 1 m/S 683 mmHg 86%
21:00 +21°C° 0.1 mm 1 m/S 683 mmHg 89%
22:00 +21°C° 0.1 mm 1 m/S 683 mmHg 91%
23:00 +21°C° 0.1 mm 1 m/S 683 mmHg 92%

26 Januar, Dienstag

Zeit Temperatur Niederschläge Wind Luftdruck Luftfeuchtigkeit
00:00 +21°C° 0.1 mm 1 m/S 683 mmHg 94%
01:00 +20°C° 0 mm 1 m/S 683 mmHg 94%
02:00 +20°C° 0 mm 1 m/S 683 mmHg 94%
03:00 +20°C° 0 mm 1 m/S 682 mmHg 95%
04:00 +20°C° 0 mm 1 m/S 683 mmHg 95%
05:00 +20°C° 0 mm 1 m/S 683 mmHg 95%
06:00 +19°C° 0 mm 1 m/S 683 mmHg 95%
07:00 +21°C° 0 mm 1 m/S 684 mmHg 89%
08:00 +23°C° 0 mm 1 m/S 684 mmHg 84%
09:00 +25°C° 0 mm 1 m/S 685 mmHg 78%
10:00 +26°C° 0.1 mm 1 m/S 685 mmHg 76%
11:00 +27°C° 0.1 mm 2 m/S 685 mmHg 73%
12:00 +27°C° 0.1 mm 2 m/S 685 mmHg 70%
13:00 +28°C° 0.6 mm 2 m/S 684 mmHg 71%
14:00 +28°C° 0.6 mm 2 m/S 684 mmHg 72%
15:00 +28°C° 0.6 mm 2 m/S 683 mmHg 73%
16:00 +27°C° 1.3 mm 1 m/S 683 mmHg 78%
17:00 +26°C° 1.3 mm 1 m/S 683 mmHg 83%
18:00 +23°C° 1.3 mm 0 m/S 683 mmHg 88%
19:00 +24°C° 2.7 mm 1 m/S 684 mmHg 89%
20:00 +23°C° 2.7 mm 1 m/S 684 mmHg 90%
21:00 +22°C° 2.7 mm 1 m/S 684 mmHg 92%
22:00 +22°C° 0.2 mm 1 m/S 684 mmHg 92%
23:00 +21°C° 0.2 mm 1 m/S 684 mmHg 92%
Mehr zeigen

Wir brauchen deine Erlaubnis

Meteoprog und unser Service Anbieter werden persönliche Daten aufbewahren, so wie Cookies, Geräte Bezeichnung oder ähnliche Technologien von deinem Gerät und Prozess, so wie Persönliche Daten Inhalte und Werbungen, genauso wie social Media und den Verkehr zu analysieren.

  • Aufbewahrung und/oder Zugang zu deiner Geräte Informationen.

    Cookies, Geräte Bezeichnung oder andere Informationen, können aufbewahrt oder Zugang zu deinem Gerät erhalten, für den Grund, der oben angegeben wird.

  • Personalisierte Werbung und Inhalte, Messungen, Einblick in das Publikum und Produkt Entwicklung.

    Werbungen und Inhalte können personalisiert werden, basierend auf ein Profil. Mehr Daten können besser personalisierte Werbungen und Inhalte hinzufügen. Werbung und Inhalte können gezeigt und gemessen werden. Einblicke über das Publikum, welche die Werbung gesehen haben und den Inhalt, können abgeleitet werden. So wie Daten können genutzt werden, um es zu verbessern oder die Benutzer Erfahrung zu verbessern das System und die Software.

Wenn du “Ich stimme zu” klickst, erlaubst du uns, die Cookies zu benutzen die Geräte Bezeichnung, den Web oder ähnliche Technologien zu benutzen. Deine Settings, können in deinem Gerät bei deinem Browser geändert werden.

Für den bestimmten Zweck, berechtigten Interessen beruhen darauf, mehr als auf den Inhalt. Du kannst mehr darüber in unseren Privaten und Cookie Politik lesen.